Effective Sunday, March 17, 2024, the National Weather Service National Data Buoy Center will discontinue its Dial-A-Buoy Interactive Voice Response system. For more information, see Service Change Notice 24-06 (PDF).

Station CHAO3 - 9432780 - Charleston, OR Image indicating link to RSS feed of recent meteorological observations for station CHAO3


Conditions at CHAO3 as of
(1:36 pm PST)
2136 GMT on 02/21/2024:
     

Click on the graph icon in the table below to see a time series plot of the last five days of that observation.

5-day plot - Wind Direction Wind Direction (WDIR): S ( 190 deg true )
5-day plot - Wind Speed Wind Speed (WSPD): 1.9 kts
5-day plot - Wind Gust Wind Gust (GST): 7.0 kts
5-day plot - Atmospheric Pressure Atmospheric Pressure (PRES):30.11 in
5-day plot - Wind Speed at 10 Meters Wind Speed at 10 meters (WSPD10M): 1.9 kts
5-day plot - Wind Speed at 20 Meters Wind Speed at 20 meters (WSPD20M): 1.9 kts
5-day plot -  Wind Speed, Wind Gust and Atmospheric Pressure Combined plot of Wind Speed, Gust, and Air Pressure
NOS Water Level Observation Network Water Level
Previous observations
TIME
(PST)
5-day plot - Wind Direction
WDIR
 
5-day plot - Wind Speed
WSPD
kts
5-day plot - Wind Gust
GST
kts
5-day plot - Wave Height
WVHT
ft
5-day plot - Dominant Wave Period
DPD
sec
5-day plot - Average Wave Period
APD
sec
5-day plot - Mean Wave Direction
MWD
 
5-day plot - Atmospheric Pressure
PRES
in
5-day plot - Pressure Tendency
PTDY
in
5-day plot - Air Temperature
ATMP
°F
5-day plot - Water Temperature
WTMP
°F
5-day plot - Dew Point
DEWP
°F
5-day plot - Salinity
SAL
psu
5-day plot - Visibility
VIS
nmi
5-day plot - Tide (above MLLW)
TIDE
ft
2024-02-21 01:30 pm S 2.9 7.0----30.11-------
2024-02-21 01:24 pmSSW 2.9 6.0----30.11-------
2024-02-21 01:18 pmSSW 2.9 5.1----30.10-------
2024-02-21 01:12 pmSSW 4.1 6.0----30.10-------
2024-02-21 01:06 pm SW 1.0 5.1----30.10-------
2024-02-21 01:00 pm W 2.9 5.1----30.10+0.04------
2024-02-21 12:54 pmWSW 4.1 8.9----30.10-------
2024-02-21 12:48 pm SW 4.1 8.0----30.10-------
2024-02-21 12:42 pmWSW 8.0 12.0----30.10-------
2024-02-21 12:36 pm SW 1.9 5.1----30.10-------
2024-02-21 12:30 pmSSW 1.9 7.0----30.10-------
2024-02-21 12:24 pm SW 4.1 9.9----30.10-------
2024-02-21 12:18 pm SW 2.9 8.0----30.10-------
2024-02-21 12:12 pmWSW 4.1 9.9----30.10-------
2024-02-21 12:06 pmSSW 2.9 7.0----30.10-------
2024-02-21 12:00 pm SW 4.1 8.9----30.10+0.06------
2024-02-21 11:54 amWSW 2.9 11.1----30.10-------
2024-02-21 11:48 am SW 5.1 11.1----30.10-------
2024-02-21 11:42 am W 1.0 7.0----30.09-------
2024-02-21 11:36 am S 2.9 7.0----30.09-------
2024-02-21 11:30 amWSW 2.9 5.1----30.09-------
2024-02-21 11:24 amWSW 2.9 8.9----30.09-------
2024-02-21 11:18 amSSW 2.9 6.0----30.09-------
2024-02-21 11:12 amSSW 4.1 6.0----30.09-------
2024-02-21 11:06 amSSW 1.9 5.1----30.09-------
2024-02-21 11:00 am SW 4.1 9.9----30.08+0.07------
2024-02-21 10:54 amWSW 2.9 5.1----30.08-------
2024-02-21 10:48 am SW 2.9 8.9----30.08-------
2024-02-21 10:42 amSSW 1.9 5.1----30.07-------
2024-02-21 10:36 am SW 1.9 8.9----30.07-------
2024-02-21 10:30 am S 4.1 8.9----30.07-------
2024-02-21 10:24 amSSW 2.9 8.0----30.07-------
2024-02-21 10:18 amSSW 1.9 9.9----30.07-------
2024-02-21 10:12 am SW 2.9 6.0----30.06-------
2024-02-21 10:06 am SW 2.9 7.0----30.06-------
2024-02-21 10:00 am SW 1.9 8.0----30.06+0.08------
2024-02-21 09:54 am S 2.9 7.0----30.06-------
2024-02-21 09:48 am SW 2.9 7.0----30.06-------
2024-02-21 09:42 amSSW 1.0 4.1----30.06-------
2024-02-21 09:36 am SW 1.9 4.1----30.05-------
2024-02-21 09:30 amSSW 1.0 5.1----30.05-------
2024-02-21 09:24 amSSE 1.9 4.1----30.05-------
2024-02-21 09:18 am S 1.9 6.0----30.04-------
2024-02-21 09:12 am S 1.9 4.1----30.04-------
2024-02-21 09:06 am SW 2.9 8.0----30.04-------
2024-02-21 09:00 am S 1.9 4.1----30.04+0.07------
2024-02-21 08:54 amSSW 1.0 4.1----30.03-------
2024-02-21 08:48 amSSW 2.9 5.1----30.03-------
2024-02-21 08:42 amSSW 1.9 5.1----30.03-------
2024-02-21 08:36 am S 2.9 9.9----30.03-------
2024-02-21 08:30 am S 1.9 5.1----30.03-------
2024-02-21 08:24 amSSW 1.9 5.1----30.02-------
2024-02-21 08:18 am S 2.9 7.0----30.01-------
2024-02-21 08:12 am S 2.9 6.0----30.01-------
2024-02-21 08:06 am- 0.0 6.0----30.01-------
2024-02-21 08:00 am S 2.9 7.0----30.01+0.06------
2024-02-21 07:54 am S 1.9 5.1----30.01-------
2024-02-21 07:48 amSSW 1.9 7.0----30.01-------
2024-02-21 07:42 am SW 4.1 8.9----30.00-------
2024-02-21 07:36 am SW 1.9 5.1----30.00-------
2024-02-21 07:30 am- 0.0 1.9----29.99-------
2024-02-21 07:24 am- 0.0 1.9----29.99-------
2024-02-21 07:18 amSSW 1.9 5.1----29.99-------
2024-02-21 07:12 am- 0.0 4.1----29.99-------
2024-02-21 07:06 am S 1.0 4.1----29.98-------
2024-02-21 07:00 am- 0.0 2.9----29.98+0.04------
2024-02-21 06:54 am SE 1.0 4.1----29.98-------
2024-02-21 06:48 am- 0.0 1.9----29.98-------
2024-02-21 06:42 amSSE 1.9 4.1----29.98-------
2024-02-21 06:36 am S 1.0 5.1----29.98-------
2024-02-21 06:30 am S 1.9 5.1----29.98-------
2024-02-21 06:24 am S 1.9 4.1----29.97-------
2024-02-21 06:18 amSSW 1.0 6.0----29.97-------
2024-02-21 06:12 am S 1.9 8.0----29.97-------
2024-02-21 06:06 am S 2.9 8.0----29.97-------
2024-02-21 06:00 am S 1.0 4.1----29.97+0.04------
2024-02-21 05:54 am SW 2.9 8.0----29.97-------
2024-02-21 05:48 am S 1.0 4.1----29.96-------
2024-02-21 05:42 am S 1.9 5.1----29.96-------
2024-02-21 05:36 am SW 1.9 8.9----29.96-------
2024-02-21 05:30 amSSW 2.9 8.0----29.96-------
2024-02-21 05:24 am SW 1.0 4.1----29.96-------
2024-02-21 05:18 am- 0.0 1.9----29.96-------
2024-02-21 05:12 am S 1.0 4.1----29.96-------
2024-02-21 05:06 am- 0.0 4.1----29.95-------
2024-02-21 05:00 am S 1.0 4.1----29.95+0.03------
2024-02-21 04:54 am SW 2.9 9.9----29.95-------
2024-02-21 04:48 am SW 2.9 7.0----29.94-------
2024-02-21 04:42 amSSW 1.0 6.0----29.95-------
2024-02-21 04:36 am SW 1.9 7.0----29.95-------
2024-02-21 04:30 amSSW 1.9 4.1----29.94-------
2024-02-21 04:24 am SW 2.9 8.9----29.94-------
2024-02-21 04:18 amSSW 1.9 8.0----29.94-------
2024-02-21 04:12 amSSW 2.9 6.0----29.94-------
2024-02-21 04:06 am SW 2.9 8.0----29.94-------
2024-02-21 04:00 am SW 5.1 8.0----29.94+0.03------
2024-02-21 03:54 am S 1.9 5.1----29.94-------
2024-02-21 03:48 amSSW 4.1 8.9----29.94-------
2024-02-21 03:42 amSSW 2.9 8.0----29.93-------
2024-02-21 03:36 am SW 6.0 11.1----29.93-------
2024-02-21 03:30 amSSW 1.9 11.1----29.93-------
2024-02-21 03:24 am SW 2.9 8.0----29.93-------
2024-02-21 03:18 am SW 1.9 11.1----29.93-------
2024-02-21 03:12 amSSW 2.9 12.0----29.93-------
2024-02-21 03:06 am SW 4.1 7.0----29.93-------
2024-02-21 03:00 amSSW 2.9 8.9----29.93+0.02------
2024-02-21 02:54 am SW 1.9 5.1----29.92-------
2024-02-21 02:48 amSSE 1.0 5.1----29.92-------
2024-02-21 02:42 am S 1.0 4.1----29.92-------
2024-02-21 02:36 am S 1.9 6.0----29.92-------
2024-02-21 02:30 amSSW 1.9 5.1----29.92-------
2024-02-21 02:24 amSSW 1.9 5.1----29.92-------
2024-02-21 02:18 amSSW 1.0 4.1----29.92-------
2024-02-21 02:12 amSSE 1.0 2.9----29.92-------
2024-02-21 02:06 am S 1.0 2.9----29.92-------
2024-02-21 02:00 am S 1.0 5.1----29.92+0.03------
2024-02-21 01:54 am- 0.0 6.0----29.92-------
2024-02-21 01:48 am S 1.9 7.0----29.92-------
2024-02-21 01:42 amSSW 1.9 6.0----29.92-------
2024-02-21 01:36 am S 1.9 7.0----29.91-------
2024-02-21 01:30 amSSW 2.9 6.0----29.91-------
2024-02-21 01:24 amSSW 2.9 7.0----29.91-------
2024-02-21 01:18 am S 1.9 7.0----29.91-------
2024-02-21 01:12 am S 1.9 7.0----29.91-------
2024-02-21 01:06 am S 2.9 6.0----29.91-------
2024-02-21 01:00 amSSW 1.0 8.0----29.91+0.02------
2024-02-21 12:54 am SW 4.1 8.9----29.91-------
2024-02-21 12:48 am S 1.9 6.0----29.90-------
2024-02-21 12:42 am S 1.9 5.1----29.90-------
2024-02-21 12:36 am SE 2.9 7.0----29.90-------
2024-02-21 12:30 amSSE 4.1 14.0----29.90-------
2024-02-21 12:24 amSSE 4.1 8.9----29.90-------
2024-02-21 12:18 am S 1.9 6.0----29.90-------
2024-02-21 12:12 am SE 2.9 7.0----29.90-------
2024-02-21 12:06 amSSE 2.9 7.0----29.90-------
2024-02-21 12:00 am S 4.1 8.0----29.90+0.03------
2024-02-20 11:54 pm S 2.9 6.0----29.90-------
2024-02-20 11:48 pm S 2.9 8.0----29.90-------
2024-02-20 11:42 pm S 2.9 11.1----29.89-------
2024-02-20 11:36 pm S 2.9 7.0----29.90-------
2024-02-20 11:30 pm S 2.9 8.9----29.89-------
2024-02-20 11:24 pm S 2.9 8.9----29.89-------
2024-02-20 11:18 pmSSW 2.9 7.0----29.89-------
2024-02-20 11:12 pm S 1.9 7.0----29.89-------
2024-02-20 11:06 pm SW 4.1 9.9----29.89-------
2024-02-20 11:00 pmSSE 1.9 5.1----29.88+0.02------
2024-02-20 10:54 pmSSE 1.9 8.9----29.88-------
2024-02-20 10:48 pm S 1.9 4.1----29.88-------
2024-02-20 10:42 pm S 2.9 8.9----29.89-------
2024-02-20 10:36 pm S 1.9 7.0----29.88-------
2024-02-20 10:30 pmSSW 1.9 7.0----29.88-------
2024-02-20 10:24 pm S 2.9 6.0----29.88-------
2024-02-20 10:18 pmSSW 2.9 11.1----29.88-------
2024-02-20 10:12 pm S 4.1 9.9----29.88-------
2024-02-20 10:06 pm S 4.1 8.9----29.88-------
2024-02-20 10:00 pmSSW 2.9 7.0----29.88+0.04------
2024-02-20 09:54 pmSSE 1.9 6.0----29.88-------
2024-02-20 09:48 pmSSE 2.9 8.9----29.88-------
2024-02-20 09:42 pm SW 1.0 5.1----29.88-------
2024-02-20 09:36 pm N 1.0 6.0----29.88-------
2024-02-20 09:30 pmSSE 1.0 1.9----29.88-------
2024-02-20 09:24 pmESE 1.0 5.1----29.88-------
2024-02-20 09:18 pm SE 2.9 5.1----29.88-------
2024-02-20 09:12 pm SE 2.9 7.0----29.87-------
2024-02-20 09:06 pmSSE 1.9 6.0----29.87-------
2024-02-20 09:00 pmESE 2.9 7.0----29.87+0.05------
2024-02-20 08:54 pm SE 1.9 5.1----29.87-------
2024-02-20 08:48 pmESE 2.9 7.0----29.87-------
2024-02-20 08:42 pmESE 1.9 5.1----29.87-------
2024-02-20 08:36 pm SE 1.9 4.1----29.87-------
2024-02-20 08:30 pmSSE 1.9 5.1----29.87-------
2024-02-20 08:24 pm SE 1.0 4.1----29.87-------
2024-02-20 08:18 pm- 0.0 2.9----29.86-------
2024-02-20 08:12 pm S 1.0 4.1----29.86-------
2024-02-20 08:06 pm S 1.0 2.9----29.86-------
2024-02-20 08:00 pm- 0.0 2.9----29.86+0.04------
2024-02-20 07:54 pmSSW 1.0 2.9----29.85-------
2024-02-20 07:48 pm W 1.9 4.1----29.85-------
2024-02-20 07:42 pmENE 1.0 4.1----29.85-------
2024-02-20 07:36 pmSSE 1.9 5.1----29.85-------
2024-02-20 07:30 pm S 1.0 5.1----29.85-------
2024-02-20 07:24 pmESE 1.9 4.1----29.84-------
2024-02-20 07:18 pmESE 1.0 5.1----29.84-------
2024-02-20 07:12 pm SE 1.0 6.0----29.84-------
2024-02-20 07:06 pm- 0.0 7.0----29.84-------
2024-02-20 07:00 pmSSE 1.9 5.1----29.84+0.02------
2024-02-20 06:54 pm E 1.9 6.0----29.84-------
2024-02-20 06:48 pmESE 1.9 8.9----29.84-------
2024-02-20 06:42 pmESE 1.9 5.1----29.84-------
2024-02-20 06:36 pm SE 2.9 6.0----29.83-------
2024-02-20 06:30 pm S 1.9 7.0----29.83-------
2024-02-20 06:24 pmESE 1.9 5.1----29.83-------
2024-02-20 06:18 pm SE 2.9 11.1----29.83-------
2024-02-20 06:12 pmSSE 4.1 6.0----29.83-------
2024-02-20 06:06 pmESE 1.9 8.9----29.83-------
2024-02-20 06:00 pmSSE 1.9 8.0----29.83+0.00------
2024-02-20 05:54 pm E 2.9 8.9----29.83-------
2024-02-20 05:48 pmSSE 2.9 8.9----29.83-------
2024-02-20 05:42 pm SE 1.9 8.0----29.83-------
2024-02-20 05:36 pm SE 1.9 5.1----29.83-------
2024-02-20 05:30 pm S 1.9 6.0----29.83-------
2024-02-20 05:24 pmESE 2.9 5.1----29.83-------
2024-02-20 05:18 pmSSE 2.9 7.0----29.82-------
2024-02-20 05:12 pm S 2.9 8.9----29.82-------
2024-02-20 05:06 pm S 1.9 8.0----29.82-------
2024-02-20 05:00 pmSSE 2.9 9.9----29.82+0.01------
2024-02-20 04:54 pmSSE 4.1 7.0----29.82-------
2024-02-20 04:48 pmSSE 1.9 14.0----29.82-------
2024-02-20 04:42 pm S 4.1 9.9----29.82-------
2024-02-20 04:36 pmSSE 4.1 9.9----29.81-------
2024-02-20 04:30 pmSSE 5.1 9.9----29.81-------
2024-02-20 04:24 pm SE 4.1 8.9----29.82-------
2024-02-20 04:18 pm N 4.1 11.1----29.82-------
2024-02-20 04:12 pmWSW 1.9 6.0----29.82-------
2024-02-20 04:06 pm W 1.0 5.1----29.82-------
2024-02-20 04:00 pmSSW 1.9 7.0----29.82+0.00------
2024-02-20 03:54 pm SW 1.9 6.0----29.82-------
2024-02-20 03:48 pm S 1.9 6.0----29.82-------
2024-02-20 03:42 pmSSW 2.9 11.1----29.82-------
2024-02-20 03:36 pmSSW 4.1 8.9----29.82-------
2024-02-20 03:30 pmSSW 4.1 7.0----29.81-------
2024-02-20 03:24 pm SW 1.9 7.0----29.82-------
2024-02-20 03:18 pmSSW 5.1 9.9----29.82-------
2024-02-20 03:12 pmWSW 2.9 6.0----29.82-------
2024-02-20 03:06 pm SW 5.1 12.0----29.82-------
2024-02-20 03:00 pm SW 2.9 8.0----29.82-0.02------
2024-02-20 02:54 pm SE 2.9 8.0----29.82-------
2024-02-20 02:48 pm SW 2.9 8.0----29.82-------
2024-02-20 02:42 pm S 4.1 7.0----29.81-------
2024-02-20 02:36 pm SW 2.9 6.0----29.82-------
2024-02-20 02:30 pmSSW 2.9 11.1----29.81-------
2024-02-20 02:24 pm S 5.1 11.1----29.82-------
2024-02-20 02:18 pm SW 1.9 9.9----29.82-------
2024-02-20 02:12 pmSSW 5.1 9.9----29.82-------
2024-02-20 02:06 pm- 0.0 1.9----29.81-------
2024-02-20 02:00 pm SW 1.0 2.9----29.80-0.04------
2024-02-20 01:54 pm- 0.0 2.9----29.81-------